[[{"header":{"parameterUnit":"m.s-1","parameterCategory":1,"la1":30.2991,"la2":30.254,"lo1":-89.0895,"lo2":-89.0444,"dy":0.0017,"dx":0.0017,"nx":28,"ny":28,"refTime":"2024-05-15T09:00:00:Z","depth":0,"parameterNumber":2,"parameterNumberName":"U-component_of_WINDS"},"data":[0,0,0,0,0,0,0,0,0,0,0,0,0,0,0,0,0,0,0,0,0,0,0,0,0,0,0,0,0,0,0,0,0,0,0,0,0,0,0,0,0,0,0,0,0,0,0,0,0,0,0,0,0,0,0,0,0,0,3.9937,3.9938,0,4.0042,4.0043,4.0044,4.0032,4.0031,4.0029,4.0027,4.0138,4.0143,4.0147,0,0,0,0,0,0,0,0,0,0,0,0,0,3.9732,3.9735,3.9937,3.9938,3.994,4.0042,4.0043,4.0045,4.0033,4.0031,4.0028,4.0027,4.0137,4.0142,4.0148,0,0,0,0,0,0,0,0,0,0,0,0,0,3.9827,3.9737,3.9937,3.9946,3.9948,4.0041,4.0043,4.0045,4.0033,4.003,4.0028,4.0026,4.0135,4.0142,4.0148,4.0241,0,0,4.0169,4.0172,0,0,0,0,0,0,0,0,3.9822,3.9835,3.9943,3.9945,3.9948,4.0021,4.0011,4.0111,4.0034,4.0001,4.0027,4.0024,4.0102,4.0111,4.0136,4.0246,4.0251,4.017,4.0174,4.0177,4.0179,0,0,0,0,0,0,0,3.9815,3.983,3.9979,3.9945,3.9948,3.9946,3.9957,4.003,4.0064,4.0003,4.0003,4.0015,4.0103,4.013,4.0139,4.0253,4.017,4.0176,4.018,4.0182,4.0446,4.0448,0,0,0,0,0,0,3.9806,3.9825,3.9975,3.9982,3.9877,3.9952,3.9964,4.0,4.0063,4.0071,4.0017,4.0014,4.012,4.0131,4.0143,4.0256,4.0177,4.0183,4.0187,4.0443,4.0446,4.0449,0,0,0,0,0,0,3.9801,3.9819,3.9971,3.9903,3.9922,3.9958,3.9999,4.0004,4.0031,4.0074,4.008,4.0039,4.0118,4.0133,4.0217,4.026,4.0186,4.0192,4.0439,4.0444,4.0448,4.0484,0,0,0,0,0,0,3.9795,3.9818,3.9852,3.9904,3.9926,4.0042,4.0002,4.0008,4.0042,4.0039,4.0096,4.0103,4.0117,4.0207,4.0224,4.0268,4.0198,4.0436,4.0441,4.0447,4.0479,4.0489,4.0497,0,0,0,0,0,3.9788,3.9858,3.9854,3.9872,3.9969,4.0044,4.0057,4.0072,4.0046,4.0082,4.0109,4.0101,4.0253,4.0215,4.0234,4.0281,4.0433,4.044,4.0446,4.0475,4.0487,4.0497,0,0,0,0,0,0,3.9811,3.9865,3.9861,3.9949,3.9992,4.0042,4.0087,4.0084,4.0136,4.0131,4.0148,4.0161,4.0245,4.0272,4.0229,4.0375,4.034,4.035,4.0355,4.0367,4.0376,4.0368,4.0203,0,0,0,0,0,3.9826,3.9882,3.9926,4.0,4.0022,4.0051,4.0084,4.0092,4.0137,4.0156,4.019,4.0235,4.0294,4.0332,4.0387,4.0483,4.0496,4.0525,4.0534,4.0541,4.055,4.0604,4.0618,4.0471,4.0471,4.0471,0,0,3.9859,3.9895,3.9929,4.0006,4.004,4.0098,4.0067,4.0129,4.0173,4.0166,4.0246,4.0273,4.0326,4.0416,4.0457,4.0441,4.0594,4.0549,4.0555,4.056,4.0612,4.0626,4.0639,4.0475,4.0475,4.0474,0,0,3.9948,3.998,4.0046,4.0081,4.0133,4.0152,4.0168,4.0219,4.0236,4.0317,4.0313,4.0367,4.0466,4.0504,4.0536,4.0641,4.0636,4.0659,4.0707,4.076,4.0771,4.0782,4.082,4.0834,4.0668,4.0668,4.0668,0,3.9982,4.0068,4.0081,4.0144,4.0179,4.0174,4.0242,4.0276,4.0344,4.0369,4.0349,4.0475,4.051,4.0609,4.0635,4.0661,4.0681,4.0653,4.0768,4.0779,4.0789,4.0826,4.084,4.0671,4.067,4.067,4.067,0,4.0108,4.0168,4.0215,4.028,4.032,4.0386,4.041,4.045,4.0454,4.0476,4.056,4.0602,4.0666,4.0691,4.0696,4.0792,4.078,4.0764,4.0729,4.0805,4.084,4.0855,4.0674,4.0673,4.0673,4.0672,0,0,4.0214,4.0285,4.0303,4.0333,4.039,4.0438,4.0504,4.0566,4.06,4.0648,4.0705,4.079,4.0776,4.0813,4.0822,4.0868,4.0951,4.0847,4.0849,4.0866,4.1061,4.1072,4.1088,4.0947,4.095,4.0952,4.1056,0,4.0309,4.0424,4.0438,4.0542,4.0598,4.0596,4.0654,4.0696,4.0719,4.0772,4.0797,4.0857,4.0834,4.0856,4.0901,4.0931,4.099,4.0923,4.1002,4.1005,4.0989,4.1107,4.1119,4.1215,4.107,4.1073,4.1074,0,4.0435,4.0485,4.0594,4.0645,4.0669,4.0721,4.078,4.083,4.0879,4.0892,4.0934,4.0938,4.1009,4.097,4.1069,4.1023,4.1056,4.1076,4.108,4.1088,4.1044,4.1119,4.1246,4.1261,4.1096,4.1094,4.1093,0,4.0502,4.0597,4.0675,4.0701,4.0762,4.0798,4.0826,4.0872,4.0909,4.0962,4.0986,4.1047,4.108,4.1127,4.1149,4.1118,4.1246,4.1209,4.1261,4.1261,4.1288,4.1286,4.1423,4.1309,4.1308,4.1308,4.1308,0,4.0607,4.0674,4.0706,4.0754,4.083,4.0846,4.0921,4.0947,4.0989,4.1043,4.1045,4.1096,4.1121,4.1177,4.1194,4.1274,4.1288,4.1302,4.1306,4.1303,4.1301,4.1325,4.1319,4.1312,4.1311,4.131,4.131,0,4.0695,4.0719,4.0804,4.0855,4.0869,4.0923,4.0967,4.1015,4.1037,4.1106,4.1123,4.1159,4.1225,4.125,4.1331,4.1343,4.1435,4.1433,4.1418,4.1419,4.1469,4.1465,4.1627,4.165,4.152,4.1521,4.1522,0,4.0761,4.0812,4.0869,4.0905,4.0933,4.0991,4.1029,4.1048,4.1087,4.1148,4.1189,4.1254,4.1307,4.1412,4.1447,4.1509,4.1509,4.1562,4.1519,4.1514,4.1511,4.1508,4.1514,4.157,4.1571,4.1572,4.1573,0,4.0875,4.0885,4.0938,4.0997,4.1042,4.1089,4.1135,4.1165,4.1191,4.1236,4.1303,4.1344,4.1426,4.1491,4.1556,4.1586,4.1585,4.1587,4.1602,4.1599,4.1588,4.1596,4.144,4.1583,4.1582,4.1581,4.1581,4.158,4.0955,4.1001,4.1048,4.1108,4.1145,4.1188,4.1235,4.1263,4.1319,4.1386,4.1395,4.1467,4.1516,4.1602,4.1635,4.1693,4.1679,4.1701,4.1707,4.1712,4.1716,4.1579,4.1705,4.1704,4.1704,4.1704,4.1704,0,4.107,4.11,4.1156,4.122,4.1268,4.1261,4.1312,4.1353,4.1416,4.1461,4.1514,4.1591,4.1655,4.1694,4.1759,4.1798,4.1799,4.1814,4.1812,4.1819,4.1724,4.1705,4.1812,4.1812,4.1812,4.1812,4.1812,4.1812,4.1136,4.1213,4.1229,4.1325,4.1356,4.1425,4.1455,4.1496,4.1532,4.1618,4.1671,4.1695,4.174,4.1808,4.1867,4.1877,4.1901,4.1917,4.1927,4.1837,4.1826,4.1815,4.1797,4.1922,4.1922,4.2017,4.2018,4.2019]},{"header":{"parameterUnit":"m.s-1","parameterCategory":1,"la1":30.2991,"la2":30.254,"lo1":-89.0895,"lo2":-89.0444,"dy":0.0017,"dx":0.0017,"nx":28,"ny":28,"refTime":"2024-05-15T09:00:00:Z","depth":0,"parameterNumber":3,"parameterNumberName":"V-component_of_WINDS"},"data":[0,0,0,0,0,0,0,0,0,0,0,0,0,0,0,0,0,0,0,0,0,0,0,0,0,0,0,0,0,0,0,0,0,0,0,0,0,0,0,0,0,0,0,0,0,0,0,0,0,0,0,0,0,0,0,0,0,0,-0.6937,-0.6937,0,-0.6975,-0.6976,-0.6976,-0.6992,-0.6991,-0.6991,-0.6991,-0.7032,-0.7033,-0.7035,0,0,0,0,0,0,0,0,0,0,0,0,0,-0.6878,-0.6879,-0.6936,-0.6937,-0.6937,-0.6975,-0.6976,-0.6976,-0.6992,-0.6991,-0.6991,-0.6991,-0.7032,-0.7033,-0.7035,0,0,0,0,0,0,0,0,0,0,0,0,0,-0.6909,-0.6879,-0.6936,-0.695,-0.6951,-0.6975,-0.6976,-0.6976,-0.6992,-0.6991,-0.6991,-0.6991,-0.7031,-0.7033,-0.7035,-0.7049,0,0,-0.704,-0.7041,0,0,0,0,0,0,0,0,-0.6907,-0.6911,-0.6947,-0.6949,-0.6951,-0.6978,-0.697,-0.7001,-0.6992,-0.6976,-0.6991,-0.6991,-0.7015,-0.7018,-0.7025,-0.7051,-0.7053,-0.704,-0.7041,-0.7042,-0.7043,0,0,0,0,0,0,0,-0.6905,-0.6909,-0.6952,-0.6948,-0.695,-0.6954,-0.6959,-0.6976,-0.6996,-0.6978,-0.6979,-0.6983,-0.7015,-0.7024,-0.7026,-0.7053,-0.704,-0.7042,-0.7043,-0.7044,-0.7095,-0.7095,0,0,0,0,0,0,-0.69,-0.6907,-0.6951,-0.6953,-0.6928,-0.6956,-0.696,-0.697,-0.6996,-0.6999,-0.6983,-0.6984,-0.7021,-0.7024,-0.7028,-0.7048,-0.7042,-0.7044,-0.7045,-0.7094,-0.7095,-0.7095,0,0,0,0,0,0,-0.6899,-0.6904,-0.6949,-0.6931,-0.6937,-0.6957,-0.6967,-0.697,-0.6979,-0.7,-0.7004,-0.6988,-0.7021,-0.7025,-0.7044,-0.7049,-0.7045,-0.7046,-0.7094,-0.7095,-0.7095,-0.7086,0,0,0,0,0,0,-0.6897,-0.6903,-0.6908,-0.6931,-0.6938,-0.6964,-0.6967,-0.6971,-0.6982,-0.6983,-0.7005,-0.7009,-0.7021,-0.7041,-0.7046,-0.7052,-0.7048,-0.7094,-0.7094,-0.7095,-0.7086,-0.7086,-0.7086,0,0,0,0,0,-0.6895,-0.6904,-0.6908,-0.6913,-0.6944,-0.6964,-0.6968,-0.6981,-0.6982,-0.6988,-0.7002,-0.7008,-0.7048,-0.7043,-0.7048,-0.7055,-0.7093,-0.7094,-0.7095,-0.7086,-0.7086,-0.7086,0,0,0,0,0,0,-0.6882,-0.6907,-0.6912,-0.6928,-0.6944,-0.6966,-0.6974,-0.6981,-0.6997,-0.6997,-0.7013,-0.7018,-0.7036,-0.7047,-0.7041,-0.7071,-0.7071,-0.7073,-0.7063,-0.7063,-0.7063,-0.7061,-0.7049,0,0,0,0,0,-0.688,-0.6894,-0.6916,-0.6928,-0.6936,-0.6953,-0.6963,-0.6972,-0.6989,-0.6995,-0.701,-0.7027,-0.7044,-0.7054,-0.707,-0.7088,-0.7094,-0.7095,-0.7095,-0.7095,-0.7097,-0.7109,-0.711,-0.7097,-0.7097,-0.7097,0,0,-0.6878,-0.6894,-0.6901,-0.6926,-0.6939,-0.6954,-0.6959,-0.6973,-0.6985,-0.6998,-0.7016,-0.7028,-0.7048,-0.7067,-0.7076,-0.7077,-0.7102,-0.7096,-0.7096,-0.7097,-0.711,-0.7111,-0.7112,-0.7098,-0.7098,-0.7098,0,0,-0.6882,-0.6895,-0.6907,-0.6921,-0.694,-0.6953,-0.6956,-0.6978,-0.6986,-0.7005,-0.7016,-0.703,-0.7057,-0.7071,-0.7082,-0.7094,-0.7101,-0.7098,-0.7099,-0.7111,-0.7112,-0.7113,-0.7119,-0.712,-0.71,-0.71,-0.71,0,-0.6877,-0.6899,-0.6913,-0.6928,-0.6939,-0.6951,-0.6965,-0.6977,-0.7001,-0.7009,-0.701,-0.7046,-0.706,-0.7083,-0.7086,-0.7094,-0.7099,-0.7096,-0.7111,-0.7112,-0.7113,-0.7119,-0.7121,-0.7099,-0.7099,-0.7099,-0.7099,0,-0.6893,-0.6908,-0.6916,-0.6939,-0.6951,-0.6965,-0.6982,-0.6993,-0.7002,-0.7014,-0.7035,-0.7052,-0.7073,-0.7079,-0.7087,-0.7104,-0.7104,-0.7107,-0.7108,-0.7114,-0.7119,-0.7122,-0.7099,-0.7099,-0.7099,-0.7099,0,0,-0.6888,-0.692,-0.6923,-0.6935,-0.6958,-0.6971,-0.6986,-0.7007,-0.7016,-0.7033,-0.7047,-0.7071,-0.7075,-0.7087,-0.7098,-0.7108,-0.7118,-0.711,-0.7111,-0.7112,-0.714,-0.7138,-0.714,-0.7123,-0.7123,-0.7124,-0.7139,0,-0.6896,-0.6923,-0.6937,-0.696,-0.6975,-0.6988,-0.7002,-0.7018,-0.7031,-0.7046,-0.706,-0.7078,-0.708,-0.7088,-0.7099,-0.7114,-0.7124,-0.7113,-0.7138,-0.7138,-0.7133,-0.7143,-0.714,-0.7153,-0.7141,-0.7141,-0.7141,0,-0.6908,-0.6925,-0.6949,-0.6973,-0.698,-0.6992,-0.7013,-0.7027,-0.7047,-0.7056,-0.707,-0.708,-0.7099,-0.7098,-0.7125,-0.7117,-0.7128,-0.7138,-0.7138,-0.7142,-0.7141,-0.7147,-0.7158,-0.716,-0.7145,-0.7144,-0.7144,0,-0.6904,-0.6933,-0.6952,-0.6961,-0.6989,-0.6997,-0.7009,-0.7029,-0.7041,-0.706,-0.7068,-0.7089,-0.71,-0.7116,-0.7132,-0.713,-0.7158,-0.7158,-0.7167,-0.7166,-0.7172,-0.7172,-0.7186,-0.7178,-0.7178,-0.7178,-0.7178,0,-0.6912,-0.6926,-0.695,-0.6962,-0.6979,-0.6995,-0.7012,-0.7025,-0.7043,-0.7059,-0.7071,-0.7085,-0.7105,-0.7122,-0.7135,-0.7156,-0.7161,-0.7169,-0.7173,-0.7169,-0.7168,-0.7177,-0.7177,-0.7178,-0.7178,-0.7178,-0.7178,0,-0.691,-0.6927,-0.6948,-0.6973,-0.698,-0.6991,-0.7013,-0.7026,-0.7039,-0.7059,-0.7064,-0.7086,-0.7107,-0.7125,-0.7152,-0.7161,-0.7183,-0.7187,-0.7176,-0.7178,-0.7187,-0.7186,-0.7207,-0.7211,-0.7199,-0.72,-0.72,0,-0.6914,-0.6925,-0.6952,-0.6963,-0.6975,-0.6993,-0.7005,-0.7023,-0.7036,-0.7061,-0.707,-0.7092,-0.7111,-0.7144,-0.7163,-0.7185,-0.719,-0.7196,-0.7193,-0.7189,-0.7191,-0.7191,-0.7193,-0.7196,-0.7196,-0.7196,-0.7196,0,-0.692,-0.6928,-0.6945,-0.6967,-0.6982,-0.6999,-0.7017,-0.7025,-0.7046,-0.7061,-0.7082,-0.7097,-0.7126,-0.7148,-0.7172,-0.7186,-0.7195,-0.7197,-0.72,-0.7196,-0.7191,-0.7195,-0.7178,-0.7196,-0.7196,-0.7196,-0.7196,-0.7196,-0.6922,-0.6933,-0.6955,-0.6974,-0.699,-0.7007,-0.702,-0.7036,-0.7054,-0.7079,-0.7089,-0.7111,-0.7133,-0.7167,-0.7181,-0.72,-0.7201,-0.7205,-0.7207,-0.7208,-0.7208,-0.7187,-0.7204,-0.7204,-0.7204,-0.7204,-0.7204,0,-0.6929,-0.6944,-0.6962,-0.6987,-0.7003,-0.701,-0.7031,-0.7044,-0.7064,-0.7084,-0.7102,-0.7128,-0.715,-0.7172,-0.7195,-0.7207,-0.7212,-0.7212,-0.7212,-0.7216,-0.7205,-0.72,-0.7208,-0.7208,-0.7208,-0.7208,-0.7208,-0.7208,-0.6935,-0.6956,-0.6967,-0.6996,-0.7011,-0.7033,-0.7045,-0.7061,-0.7077,-0.7105,-0.7124,-0.7138,-0.7159,-0.7184,-0.7206,-0.7212,-0.722,-0.722,-0.7227,-0.7217,-0.7216,-0.7216,-0.7211,-0.7222,-0.7222,-0.7237,-0.7237,-0.7237]}]]